Tracking 25710 objects as of 6-Jul-2022
HD Live streaming from Space Station
objects crossing your sky now

FENGYUN 1C DEB

Track FENGYUN 1C DEB now!
10-day predictions


NORAD ID: 31611
Int'l Code: 1999-025BZR
Perigee: 690.1 km
Apogee: 841.5 km
Inclination: 99.0 °
Period: 100.0 minutes
Semi major axis: 7136 km
RCS: 0.0063 m2 (small)
Launch date: May 10, 1999
Source: People's Republic of China (PRC)
Launch site: Taiyaun Space Center, China (TSC)

Note: This is SATELLITE DEBRIS
aabbcc
Your satellite tracking list
Your tracking list is empty




NASA's NSSDC Master Catalog

Two Line Element Set (TLE):
1 31611U 99025BZR 22184.51054984  .00003192  00000-0  96451-3 0  9993
2 31611  98.9919  23.1737 0106040  21.1705   8.6033 14.39942759489496
Source of the keplerian elements: AFSPC